Location: Unspecified
(0.0000°N, 0.0000°E)
Time: 10:17:35
(UTC+00:00)

Vanguard 2 - Pass Details

Date: 12 October 2022
Orbit: 553 x 2933 km, 32.9° (Epoch: 29 November)

Event Time Altitude Azimuth Distance (km) Brightness Sun altitude
Rises 17:41:32 0° 306° (NW) 6,138 12.9 1.2°
Reaches altitude 10° 17:45:14 10° 307° (NW) 5,338 12.6 0.3°
Maximum altitude 18:02:27 88° 37° (NE) 2,933 10.5 -4.0°
Drops below altitude 10° 18:19:17 10° 125° (SE) 5,235 11.3 -8.1°
Sets 18:22:52 0° 125° (SE) 6,021 11.6 -9.0°
